Hourly Data Report for June 22, 2021

TRENTON A
ONTARIO
Current Station Operator: DND

44°07'00.000" N
77°32'00.000" W
86.30 m
6158875
71621
YTR

Download Data

Hourly Data (June 2021)
Hourly Data Report for June 22, 2021
TIME
LST
Temp Definition
°C
Dew Point Definition
°C
Rel Hum Definition
%
Precip. Amount Definition
mm

Wind Dir Definition
10's deg

Wind Spd Definition
km/h
Visibility Definition
km
Stn Press Definition
kPa
Hmdx Definition


Wind Chill Definition


Weather Definition


00:00 15.4 11.1 76   31 24 24.1 99.46     Mostly Cloudy
01:00 14.5 10.8 78   33 17 24.1 99.49     Mostly Cloudy
02:00 14.1 10.8 81   32 17 24.1 99.55     Mainly Clear
03:00 13.9 11.1 83   33 21 24.1 99.57     Mainly Clear
04:00 13.8 11.3 85   29 9 24.1 99.63     Mostly Cloudy
05:00 13.8 11.2 84   30 11 24.1 99.68     Mostly Cloudy
06:00 13.5 9.3 76   3 15 24.1 99.75     Mostly Cloudy
07:00 13.5 8.2 70   36 18 24.1 99.87     Mostly Cloudy
08:00 14.4 8.2 66   2 13 24.1 99.95     Mostly Cloudy
09:00 14.4 7.3 62   36 9 24.1 100.04     Cloudy
10:00 14.8 7.3 61   32 11 24.1 100.06     Mostly Cloudy
11:00 16.1 8.2 59   33 11 24.1 100.12     Cloudy
12:00 16.8 7.8 55   33 11 24.1 100.10     Mostly Cloudy
13:00 17.2 6.9 51   32 15 24.1 100.07     Mostly Cloudy
14:00 17.0 6.2 49   30 9 24.1 100.05     Mostly Cloudy
15:00 17.5 8.6 56   23 17 24.1 100.03     Mostly Cloudy
16:00 17.8 9.0 56   21 15 24.1 100.03     Mostly Cloudy
17:00 18.3 3.9 38   22 18 24.1 100.06     Mostly Cloudy
18:00 18.5 4.1 39   29 18 24.1 100.11     Mostly Cloudy
19:00 17.3 3.4 40   32 21 24.1 100.22     Mainly Clear
20:00 15.4 4.0 47   32 13 24.1 100.27     Mainly Clear
21:00 13.7 4.5 54   31 11 24.1 100.38     Mainly Clear
22:00 13.2 2.7 49   31 11 24.1 100.44     Clear
23:00 11.8 3.2 56   33 13 24.1 100.49     Clear

Notes on Data Quality.

Legend

  • E = Estimated
  • M = Missing
  • NA = Not Available*
  • [empty] = Indicates an unobserved value
Date modified: